Regional Weather Roundup
Issued by NWS

Home | Current Version | Previous Version | Graphics & Text | Print | Product List | Glossary On
Versions: 1 2 3 4 5 6 7 8 9 10 11 12 13 14 15 16 17 18 19 20 21 22 23 24 25 26 27 28 29 30 31 32 33 34 35 36 37 38 39 40 41 42 43 44 45 46
000
ASUS45 KBOU 190310
RWRCO

WEATHER ROUNDUP FOR COLORADO
NATIONAL WEATHER SERVICE DENVER/BOULDER CO
900 PM MDT WED APR 18 2018

NOTE: "FAIR" INDICATES FEW OR NO CLOUDS BELOW 12000 FEET WITH NO
SIGNIFICANT WEATHER AND/OR OBSTRUCTIONS TO VISIBILITY.

COZ001>005-013-030-031-190400-
...NORTHWEST COLORADO...

CITY           SKY/WX    TMP DP  RH WIND       PRES   REMARKS
CRAIG          FAIR      40  20  44 E5        30.13S
HAYDEN         FAIR      41  17  38 SW5       30.15S
MEEKER         FAIR      41  24  51 S3        30.12R
RANGELY        FAIR      43  15  31 E3        30.09S
RABBIT EARS PA FAIR      28   9  43 SE6       30.24S WCI  22
STEAMBOAT SPGS FAIR      40  16  37 CALM      30.14S
WALDEN         FAIR      30   0  27 N7        30.21S WCI  23
$$

COZ006>008-011-190400-
...WEST CENTRAL VALLEYS...

CITY           SKY/WX    TMP DP  RH WIND       PRES   REMARKS
GRAND JUNCTION FAIR      46   8  21 CALM      30.07F
MONTROSE       FAIR      47   3  16 E5        30.13R HAZE
EAGLE          FAIR      42  18  37 NE5       30.16R
RIFLE          FAIR      44  22  41 S3        30.10R
DELTA          FAIR      52   4  14 CALM      30.10R
NUCLA          FAIR      52  -6   9 CALM      30.14S
$$

COZ017>023-064>068-190400-
...SOUTHWEST COLORADO...

CITY           SKY/WX    TMP DP  RH WIND       PRES   REMARKS
DURANGO        FAIR      44  -7  11 VRB5      30.15S
CORTEZ         FAIR      38  -4  16 NE3       30.11F
PAGOSA SPRINGS FAIR      37  -4  17 CALM      30.21R
TELLURIDE      FAIR      43   1  17 S3        30.24R
WOLF CREEK PAS FAIR      28  -6  22 S17G24    30.37R WCI  16
$$

COZ009-010-012-014-032>034-037-058>063-190400-
...CENTRAL COLORADO...

CITY           SKY/WX    TMP DP  RH WIND       PRES   REMARKS
ASPEN          FAIR      39  18  42 S7        30.15R
BUENA VISTA    FAIR      42  -2  15 S8        30.24R
COPPER MTN     NOT AVBL
BERTHOUD PASS  FAIR      14   3  62 MISG      30.29S
COTTONWOOD PAS FAIR      41  -4  15 SE20G25   30.27R
GUNNISON       FAIR      42   8  24 S6        30.16R
GRANBY         FAIR      34  11  38 E5        30.23R WCI  30
KREMMLING      FAIR      43  10  26 CALM      30.19R
LEADVILLE      FAIR      34   4  28 S7        30.24R WCI  28
MONARCH PASS   FAIR      27   0  31 E7        30.43S WCI  19
SALIDA         FAIR      45  -3  13 SE15G23   30.30R
SUNLIGHT       FAIR      28   9  43 CALM      30.29R
WILKERSON PASS FAIR      27  -6  24 S13G24    30.36R WCI  16
$$

COZ069>075-190400-
...SAN LUIS VALLEY/SANGRE DE CRISTO MOUNTAINS...

CITY           SKY/WX    TMP DP  RH WIND       PRES   REMARKS
ALAMOSA        FAIR      41   1  18 S9        30.19R
DEL NORTE      FAIR      40   5  23 W10       30.21R
LA VETA PASS   FAIR      28   1  31 N15G22    30.44R WCI  17
SAGUACHE       NOT AVBL
$$

COZ035-036-038>040-190400-
...NORTHERN COLORADO FRONT RANGE...

CITY           SKY/WX    TMP DP  RH WIND       PRES   REMARKS
DENVER INTL AP FAIR      36  11  35 SE9       30.25R
AURORA         PTCLDY    37  12  35 SE10      30.26R
FRONT RANGE AP PTCLDY    39  10  30 SE8       30.26R
ERIE MUNI ARPT FAIR      44  11  26 E6        30.29R
BOULDER MUN AP FAIR      48  14  25 CALM      30.24R
CENTENNIAL     FAIR      41  12  30 SE7       30.25R
BROOMFIELD     PTCLDY    46  10  23 E7        30.25R
FORT COLLINS   FAIR      46  15  28 E10       30.24R
LONGMONT       FAIR      42  16  35 W3        30.26R
$$

COZ041-046-047-076>085-087-088-190400-
...PIKES PEAK/PALMER DIVIDE AND SOUTHERN FOOTHILLS...

CITY           SKY/WX    TMP DP  RH WIND       PRES   REMARKS
COLO. SPRINGS  FAIR      42   3  19 SE9       30.27R
A. F. ACADEMY  FAIR      43  -1  15 S8        30.26R
SCHRIEVER AFB  NOT AVBL
CHEYENNE MTN   FAIR      43  -3  14 S15       30.23R
ELLICOTT         N/A    N/A N/A N/A E10       30.27R
FALCON         FAIR      38   0  20 CALM      30.30R
FORT CARSON    FAIR      45  -1  14 S6        30.25R
LIMON          FAIR      38  16  40 NE10      30.27R
MONUMENT HILL  FAIR      32   9  37 SE8       30.29R WCI  25
CANON CITY     FAIR      46   5  18 E9        30.25R
WALSENBURG     NOT AVBL
TRINIDAD       FAIR      44   3  18 E9        30.26R
$$

COZ042>045-048>051-090-091-190400-
...NORTHEAST COLORADO...

CITY           SKY/WX    TMP DP  RH WIND       PRES   REMARKS
GREELEY ARPT   FAIR      42  16  34 E8        30.25R
AKRON          FAIR      40  19  43 E8        30.26R
BURLINGTON     FAIR      40  18  41 NE5       30.27R
WRAY           FAIR      41  23  48 NW7       30.26R
YUMA           FAIR      37  21  52 N6        30.26R
STERLING       FAIR      41  21  45 CALM      30.25R
HOLYOKE        FAIR      43  25  49 N7        30.25R
FORT MORGAN    FAIR      38  13  36 E7        30.26R
$$

COZ086-089-092>099-190400-
...SOUTHEAST COLORADO...

CITY           SKY/WX    TMP DP  RH WIND       PRES   REMARKS
PUEBLO         FAIR      46   3  17 E5        30.24R
LA JUNTA       FAIR      46   8  21 E7        30.24R
LAMAR          FAIR      44  15  31 E8        30.23R
SPRINGFIELD      N/A     42   7  23 E6        30.26R
$$




USA.gov is the U.S. government's official web portal to all federal, state and local government web resources and services.